Location: Newark
(13.6797°N, 8.5297°E)
Time: 15:23:52
(UTC+00:00)

Courier 1B Rocket - Pass Details

Date: 18 January 2020
Orbit: 920 x 1202 km, 28.2° (Epoch: 25 February)

Event Time Altitude Azimuth Distance (km) Brightness Sun altitude
Rises 14:08:55 0° 280° (W) 3,692 8.5 39.2°
Reaches altitude 10° 14:12:07 10° 293° (WNW) 2,700 7.7 38.6°
Maximum altitude 14:17:23 26° 348° (NNW) 1,762 6.4 37.6°
Drops below altitude 10° 14:22:30 10° 43° (NE) 2,610 6.9 36.7°
Sets 14:25:33 0° 56° (NE) 3,544 7.4 36.1°
